| time (UTC) | temp F | wind direction | speed knots | gust knots | rain 1hr in | rain 24hr in | rain mn in | humidity % | barometer mb |
| 20260502191055 | 74 | 62 | 1.7 | 7.0 | 0.00 | 1.92 | 0.00 | 43 | 1018.6 |
| 20260502190555 | 74 | 55 | 1.7 | 6.1 | 0.00 | 1.92 | 0.00 | 45 | 1018.7 |
| 20260502190055 | 74 | 314 | 1.7 | 6.1 | 0.00 | 1.92 | 0.00 | 42 | 1018.8 |
| 20260502185555 | 74 | 337 | 0.9 | 4.3 | 0.00 | 2.41 | 0.00 | 45 | 1018.9 |
| 20260502185055 | 73 | 9 | 1.7 | 7.8 | 0.00 | 2.41 | 0.00 | 43 | 1018.9 |
| 20260502184553 | 73 | 9 | 2.6 | 11.3 | 0.00 | 2.41 | 0.00 | 44 | 1019.0 |
| 20260502184058 | 73 | 42 | 1.7 | 11.3 | 0.00 | 2.41 | 0.00 | 40 | 1019.1 |
| 20260502183555 | 74 | 73 | 1.7 | 7.0 | 0.00 | 2.41 | 0.00 | 43 | 1019.1 |
| 20260502183058 | 73 | 298 | 0.9 | 7.8 | 0.00 | 2.41 | 0.00 | 45 | 1019.1 |
| 20260502182554 | 73 | 90 | 1.7 | 7.8 | 0.00 | 2.41 | 0.00 | 44 | 1019.2 |
| 20260502182055 | 73 | 70 | 2.6 | 7.8 | 0.00 | 2.41 | 0.00 | 46 | 1019.1 |
| 20260502181555 | 73 | 121 | 1.7 | 7.0 | 0.00 | 2.41 | 0.00 | 45 | 1019.3 |
| 20260502181059 | 73 | 8 | 2.6 | 7.0 | 0.00 | 2.41 | 0.00 | 44 | 1019.2 |
| 20260502180556 | 73 | 13 | 1.7 | 7.0 | 0.00 | 2.41 | 0.00 | 46 | 1019.2 |
| 20260502164055 | 70 | 48 | 2.6 | 7.8 | 0.00 | 3.45 | 0.00 | 56 | 1019.5 |
| 20260502163555 | 70 | 346 | 0.9 | 5.2 | 0.00 | 3.45 | 0.00 | 58 | 1019.5 |
| 20260502163057 | 70 | 310 | 1.7 | 7.0 | 0.00 | 3.45 | 0.00 | 58 | 1019.6 |
| 20260502162558 | 69 | 318 | 1.7 | 7.0 | 0.00 | 3.45 | 0.00 | 61 | 1019.6 |
| 20260502162059 | 69 | 61 | 1.7 | 7.8 | 0.00 | 3.45 | 0.00 | 60 | 1019.6 |
| 20260502161559 | 69 | 36 | 1.7 | 7.8 | 0.00 | 3.45 | 0.00 | 62 | 1019.5 |
| 20260502161055 | 68 | 16 | 1.7 | 5.2 | 0.00 | 3.45 | 0.00 | 62 | 1019.4 |
| 20260502160555 | 69 | 18 | 1.7 | 5.2 | 0.00 | 3.45 | 0.00 | 62 | 1019.5 |
| 20260502160105 | 69 | 320 | 1.7 | 5.2 | 0.00 | 3.45 | 0.00 | 65 | 1019.5 |
| 20260502152055 | 66 | 0 | 0.9 | 4.3 | 0.00 | 3.78 | 0.00 | 70 | 1019.5 |
| 20260502151611 | 65 | 346 | 1.7 | 5.2 | 0.00 | 3.78 | 0.00 | 69 | 1019.5 |
| 20260502151059 | 65 | 76 | 1.7 | 5.2 | 0.00 | 3.78 | 0.00 | 72 | 1019.4 |
| 20260502150558 | 64 | 0 | 1.7 | 5.2 | 0.00 | 3.78 | 0.00 | 73 | 1019.3 |
| 20260502150109 | 64 | 0 | 0.9 | 4.3 | 0.00 | 3.78 | 0.00 | 75 | 1019.5 |
| 20260502130555 | 55 | 327 | 0.9 | 5.2 | 0.00 | 3.81 | 0.00 | 91 | 1018.0 |
| 20260502123555 | 54 | 329 | 0.0 | 2.6 | 0.00 | 3.81 | 0.00 | 93 | 1018.1 |
| 20260502123056 | 53 | 108 | 0.0 | 4.3 | 0.00 | 3.81 | 0.00 | 93 | 1018.1 |
| 20260502122555 | 53 | 281 | 0.0 | 4.3 | 0.00 | 3.81 | 0.00 | 94 | 1017.9 |
| 20260502122055 | 53 | 57 | 0.0 | 2.6 | 0.00 | 3.81 | 0.00 | 94 | 1017.9 |
| 20260502121601 | 52 | 320 | 0.0 | 2.6 | 0.00 | 3.81 | 0.00 | 94 | 1017.7 |
| 20260502121054 | 52 | 10 | 0.0 | 2.6 | 0.00 | 3.81 | 0.00 | 94 | 1017.5 |
| 20260502120555 | 52 | 0 | 0.0 | 2.6 | 0.00 | 3.81 | 0.00 | 94 | 1017.5 |
| 20260502120111 | 52 | 298 | 0.0 | 1.7 | 0.00 | 3.81 | 0.00 | 94 | 1017.4 |
| 20260502115556 | 52 | 83 | 0.0 | 3.5 | 0.00 | 3.82 | 0.00 | 94 | 1017.4 |
| 20260502115056 | 52 | 20 | 0.9 | 3.5 | 0.00 | 3.82 | 0.00 | 93 | 1017.2 |
| 20260502114602 | 52 | 0 | 0.0 | 2.6 | 0.00 | 3.82 | 0.00 | 93 | 1017.2 |
| 20260502114056 | 52 | 0 | 0.0 | 1.7 | 0.00 | 3.82 | 0.00 | 93 | 1017.2 |
| 20260502113555 | 52 | 0 | 0.0 | 1.7 | 0.00 | 3.82 | 0.00 | 93 | 1017.2 |
| 20260502113057 | 52 | 337 | 0.0 | 1.7 | 0.00 | 3.82 | 0.00 | 93 | 1017.2 |
| 20260502112604 | 52 | 0 | 0.0 | 2.6 | 0.00 | 3.82 | 0.00 | 93 | 1017.2 |
| 20260502112058 | 52 | 326 | 0.0 | 2.6 | 0.00 | 3.82 | 0.00 | 93 | 1017.0 |
| 20260502111600 | 52 | 23 | 0.9 | 3.5 | 0.00 | 3.82 | 0.00 | 93 | 1016.9 |
| 20260502111055 | 52 | 3 | 0.9 | 3.5 | 0.00 | 3.82 | 0.00 | 93 | 1016.8 |
| 20260502110555 | 52 | 0 | 0.0 | 2.6 | 0.00 | 3.82 | 0.00 | 93 | 1016.6 |
| 20260502110053 | 52 | 4 | 0.9 | 3.5 | 0.00 | 3.82 | 0.00 | 93 | 1016.5 |
| 20260502105555 | 52 | 22 | 0.9 | 3.5 | 0.00 | 3.86 | 0.00 | 93 | 1016.6 |
| 20260502105056 | 52 | 350 | 0.9 | 2.6 | 0.00 | 3.86 | 0.00 | 93 | 1016.5 |
| 20260502104558 | 52 | 284 | 0.0 | 2.6 | 0.00 | 3.86 | 0.00 | 93 | 1016.4 |
| 20260502104056 | 52 | 342 | 0.0 | 3.5 | 0.00 | 3.86 | 0.00 | 93 | 1016.2 |
| 20260502103557 | 52 | 318 | 0.9 | 3.5 | 0.00 | 3.86 | 0.00 | 93 | 1016.2 |
| 20260502103101 | 52 | 296 | 0.0 | 2.6 | 0.00 | 3.86 | 0.00 | 93 | 1016.0 |
| 20260502102556 | 52 | 350 | 0.0 | 1.7 | 0.00 | 3.86 | 0.00 | 93 | 1015.9 |
| 20260502102058 | 52 | 0 | 0.0 | 0.9 | 0.00 | 3.86 | 0.00 | 93 | 1015.8 |
| 20260502101556 | 52 | 0 | 0.0 | 0.9 | 0.00 | 3.86 | 0.00 | 93 | 1015.8 |
| 20260502101055 | 52 | 0 | 0.0 | 0.9 | 0.00 | 3.86 | 0.00 | 93 | 1015.8 |
| 20260502100555 | 52 | 0 | 0.0 | 0.9 | 0.00 | 3.86 | 0.00 | 92 | 1015.8 |
| 20260502100115 | 52 | 0 | 0.0 | 0.9 | 0.00 | 3.86 | 0.00 | 92 | 1015.7 |
| 20260502091055 | 53 | 358 | 0.0 | 4.3 | 0.00 | 3.86 | 0.00 | 89 | 1015.4 |
| 20260502090555 | 53 | 48 | 0.9 | 4.3 | 0.00 | 3.86 | 0.00 | 89 | 1015.4 |
| 20260502090103 | 53 | 31 | 0.9 | 3.5 | 0.00 | 3.86 | 0.00 | 89 | 1015.4 |
| 20260502071055 | 54 | 45 | 1.7 | 8.7 | 0.00 | 3.88 | 0.00 | 93 | 1014.7 |
| 20260502070555 | 54 | 343 | 0.9 | 8.7 | 0.00 | 3.88 | 0.00 | 93 | 1014.7 |
| 20260502070059 | 54 | 34 | 1.7 | 7.0 | 0.00 | 3.88 | 0.00 | 93 | 1014.6 |
| 20260502065558 | 54 | 18 | 1.7 | 6.1 | 0.00 | 3.94 | 0.00 | 93 | 1014.6 |
| 20260502065054 | 54 | 52 | 0.9 | 6.1 | 0.00 | 3.94 | 0.00 | 93 | 1014.7 |
| 20260502064609 | 54 | 48 | 1.7 | 6.1 | 0.00 | 3.94 | 0.00 | 93 | 1014.7 |
| 20260502064055 | 54 | 74 | 0.9 | 6.1 | 0.00 | 3.94 | 0.00 | 93 | 1014.7 |
| 20260502063557 | 54 | 321 | 1.7 | 9.6 | 0.00 | 3.94 | 0.00 | 92 | 1014.9 |
| 20260502063058 | 54 | 73 | 0.9 | 9.6 | 0.00 | 3.94 | 0.00 | 93 | 1014.8 |
| 20260502062555 | 54 | 339 | 1.7 | 9.6 | 0.00 | 3.94 | 0.00 | 93 | 1015.1 |
| 20260502062056 | 54 | 35 | 0.9 | 5.2 | 0.00 | 3.94 | 0.00 | 93 | 1015.1 |
| 20260502061559 | 54 | 79 | 0.0 | 5.2 | 0.00 | 3.94 | 0.00 | 93 | 1015.2 |
| 20260502061055 | 54 | 350 | 1.7 | 5.2 | 0.00 | 3.94 | 0.00 | 93 | 1015.3 |
| 20260502060555 | 54 | 28 | 0.9 | 4.3 | 0.00 | 3.94 | 0.00 | 93 | 1015.4 |
| 20260502060059 | 54 | 15 | 1.7 | 4.3 | 0.00 | 3.94 | 0.00 | 93 | 1015.4 |
| 20260502055558 | 55 | 4 | 0.0 | 3.5 | 0.00 | 3.94 | 0.00 | 93 | 1015.7 |
| 20260502055055 | 55 | 0 | 0.9 | 4.3 | 0.00 | 3.94 | 0.00 | 93 | 1015.7 |
| 20260502054600 | 55 | 107 | 0.0 | 4.3 | 0.00 | 3.94 | 0.00 | 93 | 1015.8 |
| 20260502054055 | 55 | 26 | 0.9 | 4.3 | 0.00 | 3.94 | 0.00 | 93 | 1015.8 |
| 20260502053555 | 55 | 279 | 0.9 | 5.2 | 0.00 | 3.94 | 0.00 | 93 | 1015.7 |
| 20260502053058 | 55 | 26 | 0.9 | 6.1 | 0.00 | 3.94 | 0.00 | 93 | 1015.7 |
| 20260502052555 | 55 | 358 | 0.9 | 6.1 | 0.00 | 3.94 | 0.00 | 93 | 1015.8 |
| 20260502052056 | 55 | 356 | 1.7 | 6.1 | 0.00 | 3.94 | 0.00 | 93 | 1015.9 |
| 20260502051639 | 55 | 51 | 0.0 | 1.7 | 0.00 | 3.94 | 0.00 | 94 | 1016.0 |
| 20260502051054 | 55 | 0 | 0.0 | 1.7 | 0.00 | 3.94 | 0.00 | 94 | 1015.9 |
| 20260502050555 | 55 | 353 | 0.0 | 3.5 | 0.01 | 3.94 | 0.00 | 94 | 1015.9 |
| 20260502050054 | 55 | 327 | 0.0 | 3.5 | 0.01 | 3.94 | 0.00 | 94 | 1015.8 |
| 20260502045556 | 55 | 315 | 1.7 | 3.5 | 0.01 | 3.94 | 3.94 | 94 | 1015.7 |
| 20260502045056 | 55 | 34 | 0.9 | 4.3 | 0.01 | 3.94 | 3.94 | 94 | 1015.6 |
| 20260502044605 | 55 | 83 | 0.9 | 4.3 | 0.01 | 3.94 | 3.94 | 94 | 1015.3 |
| 20260502044055 | 55 | 88 | 0.9 | 5.2 | 0.02 | 3.94 | 3.94 | 94 | 1015.0 |
| 20260502043555 | 55 | 41 | 1.7 | 5.2 | 0.02 | 3.94 | 3.94 | 94 | 1014.7 |
| 20260502043103 | 55 | 305 | 0.0 | 6.1 | 0.02 | 3.94 | 3.94 | 94 | 1014.5 |
| 20260502042557 | 55 | 124 | 1.7 | 6.1 | 0.02 | 3.94 | 3.94 | 94 | 1014.1 |
| 20260502042055 | 55 | 86 | 0.0 | 5.2 | 0.02 | 3.94 | 3.94 | 94 | 1014.3 |
| 20260502041553 | 55 | 81 | 0.9 | 5.2 | 0.02 | 3.94 | 3.94 | 94 | 1014.1 |
| 20260502041059 | 55 | 355 | 1.7 | 5.2 | 0.02 | 3.94 | 3.94 | 94 | 1014.0 |
| 20260502040555 | 55 | 349 | 1.7 | 6.1 | 0.01 | 3.93 | 3.93 | 93 | 1014.3 |
| 20260502040052 | 56 | 319 | 1.7 | 6.1 | 0.01 | 3.93 | 3.93 | 94 | 1014.4 |
| 20260502035557 | 56 | 95 | 1.7 | 5.2 | 0.01 | 3.93 | 3.93 | 94 | 1014.3 |
| 20260502035057 | 56 | 46 | 1.7 | 5.2 | 0.01 | 3.93 | 3.93 | 94 | 1014.4 |
| 20260502034554 | 56 | 325 | 0.9 | 5.2 | 0.01 | 3.93 | 3.93 | 94 | 1014.4 |
| 20260502034056 | 56 | 72 | 1.7 | 5.2 | 0.00 | 3.92 | 3.92 | 94 | 1014.4 |
| 20260502033555 | 56 | 86 | 1.7 | 5.2 | 0.01 | 3.92 | 3.92 | 94 | 1014.3 |
| 20260502033057 | 56 | 35 | 1.7 | 5.2 | 0.02 | 3.92 | 3.92 | 94 | 1014.3 |
| 20260502032555 | 56 | 332 | 0.9 | 6.1 | 0.03 | 3.92 | 3.92 | 94 | 1014.1 |
| 20260502032055 | 56 | 124 | 0.9 | 6.1 | 0.06 | 3.92 | 3.92 | 94 | 1014.1 |
| 20260502031609 | 56 | 213 | 1.7 | 7.0 | 0.10 | 3.92 | 3.92 | 94 | 1014.0 |
| 20260502031056 | 56 | 12 | 2.6 | 7.0 | 0.10 | 3.92 | 3.92 | 94 | 1014.0 |
| 20260502030558 | 56 | 64 | 1.7 | 5.2 | 0.11 | 3.92 | 3.92 | 94 | 1013.9 |
| 20260502030053 | 56 | 40 | 1.7 | 5.2 | 0.12 | 3.92 | 3.92 | 94 | 1013.8 |
| 20260502025555 | 56 | 339 | 1.7 | 6.1 | 0.13 | 3.92 | 3.92 | 94 | 1013.7 |
| 20260502025055 | 56 | 14 | 0.9 | 6.1 | 0.14 | 3.92 | 3.92 | 94 | 1013.5 |
| 20260502024557 | 56 | 143 | 2.6 | 6.1 | 0.15 | 3.92 | 3.92 | 94 | 1013.5 |
| 20260502024055 | 56 | 22 | 0.9 | 5.2 | 0.17 | 3.92 | 3.92 | 95 | 1013.6 |
| 20260502023557 | 56 | 347 | 0.9 | 5.2 | 0.17 | 3.91 | 3.91 | 95 | 1013.5 |
| 20260502023055 | 57 | 339 | 0.9 | 3.5 | 0.16 | 3.90 | 3.90 | 95 | 1013.4 |
| 20260502022554 | 57 | 3 | 0.9 | 3.5 | 0.16 | 3.89 | 3.89 | 95 | 1013.5 |
| 20260502022058 | 57 | 36 | 0.9 | 3.5 | 0.13 | 3.86 | 3.86 | 95 | 1013.6 |
| 20260502021557 | 57 | 45 | 0.9 | 2.6 | 0.09 | 3.82 | 3.82 | 95 | 1013.7 |
| 20260502021056 | 57 | 0 | 0.0 | 2.6 | 0.10 | 3.82 | 3.82 | 94 | 1013.3 |
| 20260502020555 | 57 | 129 | 0.0 | 2.6 | 0.10 | 3.81 | 3.81 | 95 | 1012.9 |
| 20260502020108 | 57 | 139 | 0.9 | 3.5 | 0.10 | 3.80 | 3.80 | 94 | 1012.3 |
| 20260502015557 | 57 | 58 | 0.9 | 3.5 | 0.10 | 3.79 | 3.79 | 94 | 1011.9 |
| 20260502015057 | 57 | 87 | 0.9 | 3.5 | 0.10 | 3.78 | 3.78 | 94 | 1011.9 |
| 20260502014555 | 57 | 32 | 0.9 | 4.3 | 0.09 | 3.77 | 3.77 | 94 | 1012.0 |
| 20260502014054 | 57 | 111 | 0.9 | 4.3 | 0.07 | 3.75 | 3.75 | 94 | 1012.0 |
| 20260502013554 | 58 | 13 | 0.9 | 6.1 | 0.06 | 3.74 | 3.74 | 94 | 1011.8 |
| 20260502013055 | 57 | 88 | 1.7 | 6.1 | 0.06 | 3.74 | 3.74 | 94 | 1011.2 |
| 20260502012554 | 58 | 77 | 1.7 | 6.1 | 0.05 | 3.73 | 3.73 | 94 | 1010.9 |
| 20260502012054 | 58 | 42 | 0.9 | 5.2 | 0.05 | 3.73 | 3.73 | 94 | 1010.8 |
| 20260502011555 | 58 | 359 | 1.7 | 6.1 | 0.05 | 3.73 | 3.73 | 94 | 1011.2 |
| 20260502011053 | 58 | 28 | 0.9 | 6.1 | 0.04 | 3.72 | 3.72 | 94 | 1011.2 |
| 20260502010556 | 58 | 62 | 1.7 | 7.0 | 0.03 | 3.71 | 3.71 | 94 | 1011.2 |
| 20260502010059 | 58 | 285 | 2.6 | 7.0 | 0.02 | 3.70 | 3.70 | 94 | 1011.2 |
| 20260502005557 | 58 | 355 | 1.7 | 5.2 | 0.01 | 3.69 | 3.69 | 94 | 1011.3 |
| 20260502005054 | 59 | 2 | 0.9 | 5.2 | 0.00 | 3.68 | 3.68 | 94 | 1011.3 |
| 20260502004557 | 59 | 21 | 1.7 | 5.2 | 0.01 | 3.68 | 3.68 | 94 | 1011.4 |
| 20260502004054 | 59 | 311 | 1.7 | 5.2 | 0.01 | 3.68 | 3.68 | 95 | 1011.5 |
| 20260502003556 | 59 | 88 | 0.0 | 6.1 | 0.02 | 3.68 | 3.68 | 95 | 1011.4 |
| 20260502003054 | 59 | 0 | 1.7 | 8.7 | 0.03 | 3.68 | 3.68 | 94 | 1011.0 |
| 20260502002554 | 59 | 32 | 2.6 | 8.7 | 0.08 | 3.68 | 3.68 | 94 | 1010.6 |
| 20260502002054 | 59 | 42 | 3.5 | 8.7 | 0.13 | 3.68 | 3.68 | 95 | 1010.4 |
| 20260502001553 | 59 | 101 | 2.6 | 7.8 | 0.15 | 3.68 | 3.68 | 95 | 1010.0 |
| 20260502001055 | 59 | 26 | 0.9 | 5.2 | 0.15 | 3.68 | 3.68 | 95 | 1009.8 |
| 20260502000554 | 59 | 357 | 0.9 | 5.2 | 0.16 | 3.68 | 3.68 | 95 | 1009.7 |
| 20260502000058 | 59 | 349 | 1.7 | 6.1 | 0.16 | 3.68 | 3.68 | 95 | 1009.7 |
| 20260501235554 | 59 | 90 | 2.6 | 6.1 | 0.16 | 3.68 | 3.68 | 95 | 1009.4 |
| 20260501235056 | 59 | 24 | 2.6 | 7.0 | 0.16 | 3.68 | 3.68 | 95 | 1009.4 |
| 20260501234557 | 59 | 339 | 1.7 | 7.0 | 0.16 | 3.67 | 3.67 | 95 | 1009.6 |
| 20260501234054 | 59 | 96 | 1.7 | 6.1 | 0.19 | 3.67 | 3.67 | 95 | 1009.9 |
| 20260501233557 | 59 | 31 | 0.9 | 6.1 | 0.20 | 3.66 | 3.66 | 95 | 1010.2 |
| 20260501233103 | 59 | 342 | 0.9 | 5.2 | 0.21 | 3.65 | 3.65 | 95 | 1010.4 |
| 20260501232553 | 60 | 52 | 0.9 | 6.1 | 0.18 | 3.59 | 3.59 | 95 | 1010.7 |
| 20260501232056 | 60 | 360 | 2.6 | 7.8 | 0.18 | 3.55 | 3.55 | 95 | 1010.6 |
| 20260501231603 | 60 | 358 | 0.9 | 7.8 | 0.19 | 3.53 | 3.53 | 95 | 1011.1 |
| 20260501231055 | 60 | 146 | 0.9 | 7.8 | 0.22 | 3.53 | 3.53 | 95 | 1010.9 |
| 20260501230555 | 60 | 82 | 0.9 | 4.3 | 0.24 | 3.52 | 3.52 | 95 | 1010.8 |
| 20260501230054 | 60 | 35 | 0.9 | 3.5 | 0.28 | 3.52 | 3.52 | 95 | 1010.3 |
| 20260501225555 | 59 | 52 | 0.9 | 3.5 | 0.32 | 3.52 | 3.52 | 95 | 1010.5 |
| 20260501225055 | 60 | 350 | 0.9 | 7.8 | 0.34 | 3.52 | 3.52 | 95 | 1010.6 |
| 20260501224552 | 60 | 69 | 0.9 | 9.6 | 0.35 | 3.51 | 3.51 | 95 | 1010.6 |
| 20260501224055 | 59 | 104 | 3.5 | 9.6 | 0.34 | 3.48 | 3.48 | 95 | 1009.6 |
| 20260501223555 | 59 | 24 | 2.6 | 7.0 | 0.33 | 3.46 | 3.46 | 95 | 1008.8 |
| 20260501223055 | 59 | 54 | 1.7 | 5.2 | 0.32 | 3.44 | 3.44 | 95 | 1010.4 |
| 20260501222556 | 59 | 81 | 1.7 | 5.2 | 0.30 | 3.40 | 3.40 | 95 | 1011.3 |
| 20260501222057 | 60 | 50 | 0.9 | 3.5 | 0.28 | 3.37 | 3.37 | 95 | 1011.6 |
| 20260501221555 | 59 | 61 | 0.9 | 3.5 | 0.26 | 3.34 | 3.34 | 95 | 1011.3 |
| 20260501221054 | 60 | 20 | 0.9 | 3.5 | 0.29 | 3.31 | 3.31 | 95 | 1011.3 |
| 20260501220555 | 60 | 62 | 0.9 | 1.7 | 0.34 | 3.28 | 3.28 | 95 | 1011.9 |
| 20260501220055 | 60 | 1 | 0.0 | 2.6 | 0.34 | 3.24 | 3.24 | 95 | 1012.2 |
| 20260501215558 | 60 | 72 | 0.0 | 5.2 | 0.37 | 3.30 | 3.20 | 95 | 1011.8 |
| 20260501215055 | 60 | 80 | 0.0 | 5.2 | 0.36 | 3.28 | 3.18 | 95 | 1011.3 |
| 20260501214602 | 60 | 68 | 1.7 | 5.2 | 0.35 | 3.26 | 3.16 | 95 | 1010.8 |
| 20260501214056 | 60 | 75 | 1.7 | 4.3 | 0.34 | 3.24 | 3.14 | 95 | 1010.5 |
| 20260501213555 | 60 | 4 | 0.9 | 4.3 | 0.36 | 3.23 | 3.13 | 95 | 1010.2 |
| 20260501213102 | 60 | 98 | 1.7 | 5.2 | 0.38 | 3.22 | 3.12 | 95 | 1010.1 |
| 20260501212555 | 60 | 62 | 0.9 | 6.1 | 0.49 | 3.20 | 3.10 | 95 | 1010.8 |
| 20260501212100 | 60 | 95 | 0.9 | 6.1 | 0.52 | 3.19 | 3.09 | 95 | 1010.7 |
| 20260501211558 | 60 | 82 | 2.6 | 6.1 | 0.55 | 3.18 | 3.08 | 95 | 1010.4 |
| 20260501211055 | 60 | 108 | 1.7 | 6.1 | 0.58 | 3.12 | 3.02 | 95 | 1010.4 |
| 20260501210555 | 60 | 67 | 1.7 | 4.3 | 0.65 | 3.04 | 2.94 | 95 | 1009.6 |
| 20260501210055 | 60 | 57 | 0.9 | 4.3 | 0.68 | 2.99 | 2.89 | 95 | 1010.7 |
| 20260501205556 | 60 | 73 | 0.9 | 3.5 | 0.66 | 2.93 | 2.83 | 95 | 1010.2 |
| 20260501205055 | 60 | 100 | 0.9 | 3.5 | 0.65 | 2.92 | 2.82 | 95 | 1009.9 |
| 20260501204600 | 60 | 93 | 0.9 | 5.2 | 0.66 | 2.91 | 2.81 | 95 | 1009.2 |
| 20260501204054 | 60 | 121 | 0.9 | 5.2 | 0.66 | 2.90 | 2.80 | 95 | 1009.0 |
| 20260501203555 | 60 | 68 | 3.5 | 5.2 | 0.66 | 2.87 | 2.77 | 95 | 1007.9 |
| 20260501203059 | 61 | 95 | 0.9 | 4.3 | 0.64 | 2.84 | 2.74 | 95 | 1009.6 |
| 20260501202555 | 61 | 46 | 1.7 | 4.3 | 0.52 | 2.71 | 2.61 | 95 | 1009.8 |
| 20260501202055 | 61 | 75 | 0.9 | 4.3 | 0.51 | 2.67 | 2.57 | 95 | 1011.2 |
| 20260501201554 | 61 | 334 | 0.9 | 4.3 | 0.49 | 2.63 | 2.53 | 95 | 1011.2 |
| 20260501201059 | 61 | 353 | 0.9 | 4.3 | 0.39 | 2.52 | 2.42 | 95 | 1010.4 |
| 20260501200559 | 61 | 66 | 0.9 | 4.3 | 0.27 | 2.39 | 2.29 | 95 | 1010.2 |
| 20260501200100 | 61 | 289 | 0.0 | 4.3 | 0.19 | 2.31 | 2.21 | 95 | 1010.4 |
| 20260501195555 | 61 | 18 | 1.7 | 6.1 | 0.15 | 2.27 | 2.17 | 95 | 1009.1 |
| 20260501195058 | 61 | 90 | 1.7 | 6.1 | 0.15 | 2.27 | 2.17 | 94 | 1008.7 |
| 20260501194601 | 61 | 55 | 3.5 | 6.1 | 0.13 | 2.25 | 2.15 | 94 | 1008.7 |
| 20260501194055 | 61 | 86 | 2.6 | 7.0 | 0.12 | 2.24 | 2.14 | 95 | 1008.6 |
| 20260501193558 | 61 | 64 | 2.6 | 7.0 | 0.10 | 2.21 | 2.10 | 95 | 1008.7 |
| 20260501193055 | 61 | 86 | 1.7 | 6.1 | 0.09 | 2.20 | 2.09 | 95 | 1009.6 |
| 20260501192555 | 61 | 81 | 1.7 | 6.1 | 0.08 | 2.18 | 2.08 | 94 | 1009.7 |
| 20260501192056 | 61 | 71 | 2.6 | 5.2 | 0.09 | 2.16 | 2.06 | 94 | 1009.6 |
| 20260501191606 | 61 | 68 | 1.7 | 4.3 | 0.28 | 2.14 | 2.04 | 95 | 1009.7 |